| time (UTC) | temp C | wind direction | speed KPH | gust KPH | rain 1hr cm | rain 24hr cm | rain mn cm | humidity % | barometer mb |
| 20260510013216 | 18 | 197 | 0.0 | 0.0 | 0.00 | 0.00 | 0.00 | 72 | 1008.1 |
| 20260510012202 | 18 | 197 | 0.0 | 0.0 | 0.00 | 0.00 | 0.00 | 71 | 1007.8 |
| 20260510011211 | 18 | 197 | 0.0 | 0.0 | 0.00 | 0.00 | 0.00 | 70 | 1007.6 |
| 20260510010201 | 18 | 197 | 0.0 | 0.0 | 0.00 | 0.00 | 0.00 | 69 | 1007.5 |
| 20260510005132 | 19 | 197 | 0.0 | 0.0 | 0.00 | 0.00 | 0.00 | 67 | 1007.4 |
| 20260510004153 | 20 | 197 | 0.0 | 0.0 | 0.00 | 0.00 | 0.00 | 66 | 1007.4 |
| 20260510003146 | 20 | 197 | 0.0 | 0.0 | 0.00 | 0.00 | 0.00 | 63 | 1007.3 |
| 20260510002158 | 21 | 197 | 0.0 | 0.0 | 0.00 | 0.00 | 0.00 | 62 | 1007.2 |
| 20260510001142 | 21 | 197 | 0.0 | 0.0 | 0.00 | 0.00 | 0.00 | 60 | 1007.2 |
| 20260509235006 | 22 | 197 | 0.0 | 0.0 | 0.00 | 0.00 | 0.00 | 56 | 1007.0 |
| 20260509232838 | 22 | 197 | 0.0 | 0.0 | 0.00 | 0.00 | 0.00 | 53 | 1006.9 |
| 20260509231902 | 22 | 197 | 0.0 | 4.8 | 0.00 | 0.00 | 0.00 | 53 | 1006.9 |
| 20260509230847 | 22 | 197 | 0.0 | 8.0 | 0.00 | 0.00 | 0.00 | 52 | 1006.9 |
| 20260509224717 | 23 | 194 | 0.0 | 8.0 | 0.00 | 0.00 | 0.00 | 53 | 1006.9 |
| 20260509223742 | 23 | 158 | 1.6 | 6.4 | 0.00 | 0.00 | 0.00 | 51 | 1006.9 |
| 20260509221638 | 23 | 145 | 3.2 | 11.3 | 0.00 | 0.00 | 0.00 | 51 | 1006.9 |
| 20260509220610 | 24 | 171 | 1.6 | 8.0 | 0.00 | 0.00 | 0.00 | 49 | 1006.9 |
| 20260509215624 | 23 | 284 | 0.0 | 9.7 | 0.00 | 0.00 | 0.00 | 49 | 1006.8 |
| 20260509214632 | 23 | 207 | 1.6 | 8.0 | 0.00 | 0.00 | 0.00 | 50 | 1006.8 |
| 20260509213624 | 23 | 273 | 1.6 | 8.0 | 0.00 | 0.00 | 0.00 | 49 | 1006.9 |
| 20260509212609 | 23 | 194 | 4.8 | 12.9 | 0.00 | 0.00 | 0.00 | 47 | 1006.8 |
| 20260509211617 | 24 | 135 | 3.2 | 12.9 | 0.00 | 0.00 | 0.00 | 48 | 1006.7 |
| 20260509210620 | 24 | 251 | 3.2 | 14.5 | 0.00 | 0.00 | 0.00 | 47 | 1006.9 |
| 20260509205640 | 25 | 272 | 4.8 | 14.5 | 0.00 | 0.00 | 0.00 | 48 | 1006.8 |
| 20260509204645 | 24 | 282 | 3.2 | 12.9 | 0.00 | 0.00 | 0.00 | 48 | 1006.8 |
| 20260509203703 | 24 | 193 | 3.2 | 9.7 | 0.00 | 0.00 | 0.00 | 50 | 1006.7 |
| 20260509202728 | 23 | 158 | 3.2 | 9.7 | 0.00 | 0.00 | 0.00 | 51 | 1006.6 |
| 20260509201707 | 23 | 193 | 1.6 | 9.7 | 0.00 | 0.00 | 0.00 | 50 | 1006.7 |
| 20260509200714 | 23 | 184 | 1.6 | 9.7 | 0.00 | 0.00 | 0.00 | 51 | 1007.0 |
| 20260509195704 | 24 | 259 | 3.2 | 9.7 | 0.00 | 0.00 | 0.00 | 49 | 1007.2 |
| 20260509194727 | 23 | 207 | 3.2 | 14.5 | 0.00 | 0.00 | 0.00 | 51 | 1007.3 |
| 20260509193726 | 23 | 181 | 3.2 | 16.1 | 0.00 | 0.00 | 0.00 | 52 | 1007.5 |
| 20260509192722 | 22 | 240 | 1.6 | 16.1 | 0.00 | 0.00 | 0.00 | 55 | 1007.7 |
| 20260509190608 | 21 | 275 | 0.0 | 3.2 | 0.00 | 0.00 | 0.00 | 60 | 1007.9 |
| 20260509185617 | 21 | 286 | 1.6 | 6.4 | 0.00 | 0.00 | 0.00 | 62 | 1007.9 |
| 20260509183414 | 20 | 188 | 6.4 | 19.3 | 0.00 | 0.00 | 0.00 | 64 | 1008.2 |
| 20260509182346 | 21 | 186 | 4.8 | 12.9 | 0.00 | 0.00 | 0.00 | 56 | 1008.2 |
| 20260509181404 | 21 | 205 | 4.8 | 17.7 | 0.00 | 0.00 | 0.00 | 54 | 1008.5 |
| 20260509180333 | 21 | 275 | 3.2 | 17.7 | 0.00 | 0.00 | 0.00 | 52 | 1008.6 |
| 20260509175324 | 22 | 269 | 3.2 | 14.5 | 0.00 | 0.00 | 0.00 | 52 | 1008.7 |
| 20260509174305 | 22 | 258 | 3.2 | 9.7 | 0.00 | 0.00 | 0.00 | 52 | 1008.8 |
| 20260509172154 | 22 | 253 | 1.6 | 12.9 | 0.00 | 0.00 | 0.00 | 52 | 1008.8 |
| 20260509171146 | 22 | 213 | 3.2 | 12.9 | 0.00 | 0.00 | 0.00 | 54 | 1008.9 |
| 20260509170139 | 22 | 203 | 1.6 | 8.0 | 0.00 | 0.00 | 0.00 | 54 | 1009.0 |
| 20260509165127 | 21 | 209 | 0.0 | 9.7 | 0.00 | 0.00 | 0.00 | 54 | 1009.0 |
| 20260509164136 | 21 | 190 | 3.2 | 11.3 | 0.00 | 0.00 | 0.00 | 55 | 1009.2 |
| 20260509163115 | 21 | 222 | 3.2 | 11.3 | 0.00 | 0.00 | 0.00 | 54 | 1009.2 |
| 20260509162129 | 21 | 146 | 3.2 | 16.1 | 0.00 | 0.00 | 0.00 | 54 | 1009.2 |
| 20260509160031 | 21 | 91 | 6.4 | 16.1 | 0.00 | 0.00 | 0.00 | 53 | 1009.2 |
| 20260509155006 | 21 | 218 | 3.2 | 11.3 | 0.00 | 0.00 | 0.00 | 53 | 1009.5 |
| 20260509153935 | 22 | 302 | 4.8 | 14.5 | 0.00 | 0.00 | 0.00 | 51 | 1009.5 |
| 20260509152958 | 22 | 198 | 6.4 | 14.5 | 0.00 | 0.00 | 0.00 | 51 | 1009.6 |
| 20260509150759 | 20 | 288 | 4.8 | 11.3 | 0.00 | 0.00 | 0.00 | 55 | 1009.7 |
| 20260509145729 | 20 | 221 | 6.4 | 14.5 | 0.00 | 0.00 | 0.00 | 58 | 1009.9 |
| 20260509144728 | 18 | 243 | 3.2 | 14.5 | 0.00 | 0.00 | 0.00 | 60 | 1010.0 |
| 20260509141425 | 17 | 200 | 1.6 | 9.7 | 0.00 | 0.00 | 0.00 | 64 | 1010.4 |
| 20260509140358 | 16 | 189 | 1.6 | 8.0 | 0.00 | 0.00 | 0.00 | 65 | 1010.3 |
| 20260509134222 | 16 | 182 | 3.2 | 12.9 | 0.00 | 0.00 | 0.00 | 65 | 1010.4 |
| 20260509133237 | 16 | 202 | 1.6 | 11.3 | 0.00 | 0.00 | 0.00 | 65 | 1010.4 |
| 20260509132237 | 16 | 196 | 0.0 | 12.9 | 0.00 | 0.00 | 0.00 | 65 | 1010.5 |
| 20260509131209 | 16 | 215 | 3.2 | 14.5 | 0.00 | 0.00 | 0.00 | 65 | 1010.5 |
| 20260509130201 | 15 | 168 | 4.8 | 14.5 | 0.00 | 0.00 | 0.00 | 65 | 1010.3 |
| 20260509125127 | 15 | 184 | 4.8 | 14.5 | 0.00 | 0.00 | 0.00 | 65 | 1010.3 |
| 20260509124119 | 15 | 205 | 6.4 | 16.1 | 0.00 | 0.00 | 0.00 | 64 | 1010.2 |
| 20260509123046 | 15 | 211 | 6.4 | 16.1 | 0.00 | 0.00 | 0.00 | 63 | 1010.2 |
| 20260509122101 | 15 | 201 | 4.8 | 17.7 | 0.00 | 0.00 | 0.00 | 64 | 1010.2 |
| 20260509121111 | 15 | 209 | 6.4 | 20.9 | 0.00 | 0.00 | 0.00 | 63 | 1010.3 |
| 20260509114950 | 15 | 215 | 6.4 | 19.3 | 0.00 | 0.00 | 0.00 | 61 | 1010.2 |
| 20260509114000 | 15 | 218 | 6.4 | 19.3 | 0.00 | 0.00 | 0.00 | 61 | 1010.2 |
| 20260509111757 | 15 | 187 | 6.4 | 17.7 | 0.00 | 0.00 | 0.00 | 60 | 1010.0 |
| 20260509110725 | 15 | 173 | 6.4 | 17.7 | 0.00 | 0.00 | 0.00 | 60 | 1010.1 |
| 20260509105710 | 15 | 173 | 4.8 | 16.1 | 0.00 | 0.00 | 0.00 | 57 | 1010.0 |
| 20260509104728 | 15 | 224 | 4.8 | 16.1 | 0.00 | 0.00 | 0.00 | 56 | 1010.0 |
| 20260509103724 | 15 | 185 | 6.4 | 14.5 | 0.00 | 0.00 | 0.00 | 55 | 1009.9 |
| 20260509100451 | 15 | 184 | 3.2 | 9.7 | 0.00 | 0.00 | 0.00 | 52 | 1009.7 |
| 20260509095510 | 15 | 211 | 3.2 | 9.7 | 0.00 | 0.00 | 0.00 | 52 | 1009.6 |
| 20260509094437 | 15 | 184 | 1.6 | 11.3 | 0.00 | 0.00 | 0.00 | 52 | 1009.6 |
| 20260509093410 | 15 | 180 | 1.6 | 11.3 | 0.00 | 0.00 | 0.00 | 52 | 1009.7 |
| 20260509092342 | 15 | 256 | 3.2 | 14.5 | 0.00 | 0.00 | 0.00 | 52 | 1009.8 |
| 20260509091335 | 15 | 242 | 3.2 | 14.5 | 0.00 | 0.00 | 0.00 | 52 | 1009.8 |
| 20260509085139 | 15 | 254 | 1.6 | 12.9 | 0.00 | 0.00 | 0.00 | 52 | 1009.9 |
| 20260509084137 | 15 | 251 | 4.8 | 14.5 | 0.00 | 0.00 | 0.00 | 52 | 1010.0 |
| 20260509082022 | 15 | 192 | 3.2 | 19.3 | 0.00 | 0.00 | 0.00 | 52 | 1010.2 |
| 20260509081024 | 15 | 255 | 6.4 | 19.3 | 0.00 | 0.00 | 0.00 | 53 | 1010.3 |
| 20260509080026 | 15 | 224 | 6.4 | 19.3 | 0.00 | 0.00 | 0.00 | 54 | 1010.4 |
| 20260509075019 | 15 | 171 | 4.8 | 14.5 | 0.00 | 0.00 | 0.00 | 54 | 1010.5 |
| 20260509074004 | 15 | 180 | 6.4 | 19.3 | 0.00 | 0.00 | 0.00 | 55 | 1010.5 |
| 20260509073022 | 15 | 261 | 8.0 | 22.5 | 0.00 | 0.00 | 0.00 | 54 | 1010.5 |
| 20260509072044 | 15 | 169 | 8.0 | 22.5 | 0.00 | 0.00 | 0.00 | 54 | 1010.5 |
| 20260509071035 | 15 | 155 | 4.8 | 16.1 | 0.00 | 0.00 | 0.00 | 54 | 1010.6 |
| 20260509070058 | 15 | 198 | 6.4 | 16.1 | 0.00 | 0.00 | 0.00 | 53 | 1010.5 |
| 20260509065029 | 15 | 180 | 8.0 | 14.5 | 0.00 | 0.00 | 0.00 | 53 | 1010.7 |
| 20260509064043 | 15 | 213 | 6.4 | 22.5 | 0.00 | 0.00 | 0.00 | 52 | 1010.7 |
| 20260509063042 | 15 | 242 | 6.4 | 22.5 | 0.00 | 0.00 | 0.00 | 52 | 1010.8 |
| 20260509062018 | 15 | 138 | 4.8 | 12.9 | 0.00 | 0.00 | 0.00 | 52 | 1010.9 |
| 20260509061006 | 15 | 232 | 4.8 | 16.1 | 0.00 | 0.00 | 0.00 | 52 | 1010.9 |
| 20260509060028 | 16 | 160 | 4.8 | 16.1 | 0.00 | 0.00 | 0.00 | 52 | 1010.9 |
| 20260509054959 | 16 | 177 | 3.2 | 12.9 | 0.00 | 0.00 | 0.00 | 51 | 1010.9 |
| 20260509053946 | 16 | 253 | 4.8 | 12.9 | 0.00 | 0.00 | 0.00 | 51 | 1011.0 |
| 20260509051822 | 15 | 217 | 4.8 | 12.9 | 0.00 | 0.00 | 0.00 | 52 | 1011.0 |
| 20260509050811 | 15 | 198 | 3.2 | 14.5 | 0.00 | 0.00 | 0.00 | 52 | 1011.0 |
| 20260509045816 | 15 | 182 | 3.2 | 14.5 | 0.00 | 0.00 | 0.00 | 53 | 1010.9 |
| 20260509044743 | 15 | 196 | 1.6 | 9.7 | 0.00 | 0.00 | 0.00 | 55 | 1011.0 |
| 20260509043736 | 15 | 136 | 3.2 | 11.3 | 0.00 | 0.00 | 0.00 | 54 | 1011.0 |
| 20260509042716 | 15 | 166 | 1.6 | 11.3 | 0.00 | 0.00 | 0.00 | 54 | 1011.1 |
| 20260509041718 | 16 | 153 | 1.6 | 11.3 | 0.00 | 0.00 | 0.00 | 54 | 1011.1 |
| 20260509040715 | 16 | 163 | 3.2 | 12.9 | 0.00 | 0.00 | 0.00 | 52 | 1011.0 |
| 20260509035713 | 16 | 189 | 4.8 | 12.9 | 0.00 | 0.00 | 0.00 | 51 | 1011.1 |
| 20260509034715 | 16 | 189 | 3.2 | 14.5 | 0.00 | 0.00 | 0.00 | 51 | 1011.2 |
| 20260509032607 | 16 | 190 | 3.2 | 12.9 | 0.00 | 0.00 | 0.00 | 49 | 1011.1 |
| 20260509031624 | 16 | 189 | 3.2 | 11.3 | 0.00 | 0.00 | 0.00 | 49 | 1011.3 |
| 20260509030644 | 17 | 199 | 3.2 | 11.3 | 0.00 | 0.00 | 0.00 | 48 | 1011.4 |
| 20260509025657 | 17 | 147 | 3.2 | 9.7 | 0.00 | 0.00 | 0.00 | 48 | 1011.4 |
| 20260509024631 | 17 | 175 | 3.2 | 9.7 | 0.00 | 0.00 | 0.00 | 47 | 1011.4 |
| 20260509022537 | 17 | 184 | 1.6 | 8.0 | 0.00 | 0.00 | 0.00 | 46 | 1011.4 |
| 20260509021530 | 17 | 175 | 1.6 | 8.0 | 0.00 | 0.00 | 0.00 | 46 | 1011.3 |
| 20260509020502 | 17 | 175 | 1.6 | 8.0 | 0.00 | 0.00 | 0.00 | 45 | 1011.3 |
| 20260509014401 | 18 | 167 | 1.6 | 11.3 | 0.00 | 0.00 | 0.00 | 45 | 1011.1 |